Location: Newark
(34.0131°N, 4.3314°W)
Time: 07:08:34
(UTC+00:00)

A-11 Canister half - Pass Details

Date: 31 October 2019
Orbit: 1514 x 1685 km, 47.2° (Epoch: 21 November)

Event Time Altitude Azimuth Distance (km) Brightness Sun altitude
Rises 05:50:09 0° 305° (NW) 4,839 - -10.0°
Exits shadow 05:52:26 - 305° (NW) 4,104 10.7 -9.5°
Reaches altitude 10° 05:53:18 10° 304° (NW) 3,828 10.5 -9.3°
Maximum altitude 06:03:00 79° 220° (SW) 1,591 9.1 -7.4°
Drops below altitude 10° 06:12:20 10° 135° (SE) 3,693 12.0 -5.5°
Sets 06:15:20 0° 134° (SE) 4,661 12.7 -4.9°
